UAL1440 KSFO-KLAX

Flight info

Callsign UAL1440
Flight time 1h 0m
Altitude 31000
Route WESLA5 SUSEY EBAYE BURGL IRNMN2
Aircraft B738/M-SDGIJ1LRWY/SB1

Departure

Time 2026-04-25 20:40
Airport San Francisco International Airport (KSFO)

Arrival

Time 2026-04-25 21:40
Airport Los Angeles International Airport (KLAX)
Time Latitude Longitude Altitude Speed Heading
2026-04-25 20:31 37.61653 -122.38125 34 ft 0 kts
2026-04-25 20:31 37.61640 -122.38125 34 ft 2 kts
2026-04-25 20:32 37.61626 -122.38129 34 ft 2 kts 38°
2026-04-25 20:32 37.61616 -122.38145 34 ft 2 kts 69°
2026-04-25 20:32 37.61614 -122.38163 34 ft 2 kts 99°
2026-04-25 20:32 37.61616 -122.38174 34 ft 1 kts 118°
2026-04-25 20:33 37.61619 -122.38180 34 ft 0 kts 118°
2026-04-25 20:34 37.61617 -122.38175 34 ft 3 kts 118°
2026-04-25 20:34 37.61591 -122.38113 34 ft 9 kts 118°
2026-04-25 20:34 37.61575 -122.38040 34 ft 9 kts 73°
2026-04-25 20:35 37.61636 -122.37981 34 ft 12 kts 30°
2026-04-25 20:35 37.61675 -122.37886 33 ft 14 kts 90°
2026-04-25 20:35 37.61662 -122.37741 30 ft 18 kts 98°
2026-04-25 20:35 37.61640 -122.37562 21 ft 22 kts 99°
2026-04-25 20:36 37.61621 -122.37354 16 ft 24 kts 97°
2026-04-25 20:36 37.61568 -122.37154 15 ft 24 kts 118°
2026-04-25 20:36 37.61486 -122.36968 14 ft 23 kts 121°
2026-04-25 20:36 37.61382 -122.36807 13 ft 23 kts 128°
2026-04-25 20:37 37.61300 -122.36629 12 ft 23 kts 117°
2026-04-25 20:37 37.61226 -122.36453 12 ft 22 kts 118°
2026-04-25 20:37 37.61153 -122.36280 11 ft 22 kts 117°
2026-04-25 20:37 37.61089 -122.36123 11 ft 17 kts 117°
2026-04-25 20:38 37.61049 -122.36003 11 ft 13 kts 93°
2026-04-25 20:38 37.61090 -122.35910 12 ft 12 kts 34°
2026-04-25 20:38 37.61165 -122.35883 12 ft 11 kts 345°
2026-04-25 20:38 37.61216 -122.35945 11 ft 2 kts 299°
2026-04-25 20:39 37.61216 -122.35946 11 ft 0 kts 299°
2026-04-25 20:39 37.61219 -122.35952 11 ft 5 kts 299°
2026-04-25 20:39 37.61237 -122.35995 11 ft 29 kts 298°
2026-04-25 20:40 37.61696 -122.37086 15 ft 133 kts 298°
2026-04-25 20:40 37.62213 -122.38263 151 ft 167 kts 298°
2026-04-25 20:40 37.62780 -122.39584 811 ft 168 kts 296°
2026-04-25 20:40 37.63334 -122.40906 1325 ft 181 kts 297°
2026-04-25 20:41 37.63979 -122.42336 1803 ft 195 kts 298°
2026-04-25 20:41 37.64673 -122.43880 2243 ft 210 kts 298°
2026-04-25 20:41 37.65407 -122.45543 2704 ft 226 kts 297°
2026-04-25 20:41 37.66187 -122.47321 3284 ft 236 kts 297°
2026-04-25 20:42 37.66960 -122.49158 3991 ft 240 kts 291°
2026-04-25 20:42 37.67251 -122.51247 4436 ft 254 kts 265°
2026-04-25 20:42 37.66743 -122.53396 5076 ft 261 kts 243°
2026-04-25 20:42 37.65663 -122.55293 5728 ft 269 kts 227°
2026-04-25 20:43 37.64132 -122.56671 6401 ft 276 kts 202°
2026-04-25 20:43 37.62250 -122.57036 7139 ft 280 kts 176°
2026-04-25 20:43 37.60373 -122.56409 7812 ft 285 kts 155°
2026-04-25 20:43 37.58642 -122.55174 8524 ft 287 kts 148°
2026-04-25 20:44 37.56970 -122.53828 9218 ft 290 kts 147°
2026-04-25 20:44 37.55251 -122.52432 9858 ft 295 kts 147°
2026-04-25 20:44 37.53517 -122.51039 10464 ft 301 kts 147°
2026-04-25 20:44 37.51687 -122.49586 10828 ft 316 kts 147°
2026-04-25 20:45 37.49787 -122.48074 11183 ft 331 kts 146°
2026-04-25 20:45 37.47959 -122.46267 11516 ft 345 kts 137°
2026-04-25 20:45 37.46241 -122.44083 12038 ft 354 kts 132°
2026-04-25 20:45 37.44594 -122.41768 12727 ft 358 kts 130°
2026-04-25 20:46 37.42958 -122.39419 13440 ft 361 kts 130°
2026-04-25 20:46 37.41295 -122.37058 14154 ft 364 kts 131°
2026-04-25 20:46 37.39598 -122.34692 14922 ft 366 kts 131°
2026-04-25 20:46 37.37875 -122.32327 15662 ft 368 kts 131°
2026-04-25 20:47 37.36140 -122.29969 16425 ft 369 kts 131°
2026-04-25 20:47 37.34405 -122.27621 17102 ft 372 kts 131°
2026-04-25 20:47 37.32631 -122.25223 17805 ft 374 kts 131°
2026-04-25 20:47 37.30860 -122.22829 18466 ft 376 kts 131°
2026-04-25 20:48 37.29077 -122.20417 19057 ft 380 kts 131°
2026-04-25 20:48 37.27270 -122.17974 19588 ft 386 kts 132°
2026-04-25 20:48 37.25434 -122.15495 20112 ft 390 kts 132°
2026-04-25 20:48 37.23592 -122.13013 20680 ft 394 kts 133°
2026-04-25 20:49 37.21723 -122.10491 21192 ft 398 kts 134°
2026-04-25 20:49 37.19838 -122.07951 21700 ft 402 kts 134°
2026-04-25 20:49 37.17928 -122.05376 22203 ft 406 kts 134°
2026-04-25 20:49 37.15978 -122.02753 22673 ft 410 kts 134°
2026-04-25 20:50 37.14048 -122.00163 23121 ft 414 kts 135°
2026-04-25 20:50 37.12062 -121.97499 23632 ft 417 kts 135°
2026-04-25 20:50 37.10099 -121.94864 24156 ft 419 kts 135°
2026-04-25 20:50 37.08114 -121.92200 24711 ft 420 kts 135°
2026-04-25 20:51 37.06114 -121.89521 25261 ft 421 kts 136°
2026-04-25 20:51 37.04116 -121.86846 25854 ft 421 kts 136°
2026-04-25 20:51 37.02131 -121.84192 26365 ft 422 kts 136°
2026-04-25 20:51 37.00111 -121.81495 26864 ft 424 kts 135°
2026-04-25 20:52 36.98111 -121.78825 27308 ft 426 kts 136°
2026-04-25 20:52 36.97430 -121.77917 27447 ft 428 kts 136°
2026-04-25 20:52 36.94053 -121.73417 28529 ft 423 kts 136°
2026-04-25 20:52 36.92062 -121.70763 29227 ft 418 kts 136°
2026-04-25 20:53 36.90081 -121.68122 29886 ft 414 kts 136°
2026-04-25 20:53 36.88111 -121.65500 30435 ft 412 kts 136°
2026-04-25 20:53 36.86143 -121.62882 30852 ft 412 kts 136°
2026-04-25 20:53 36.84161 -121.60252 30930 ft 416 kts 137°
2026-04-25 20:54 36.80139 -121.54927 30928 ft 427 kts 137°
2026-04-25 20:54 36.75979 -121.49432 30931 ft 441 kts 137°
2026-04-25 20:55 36.71753 -121.43842 30930 ft 440 kts 137°
2026-04-25 20:55 36.67552 -121.38289 30921 ft 441 kts 137°
2026-04-25 20:56 36.63345 -121.32739 30912 ft 440 kts 137°
2026-04-25 20:56 36.59136 -121.27200 30907 ft 440 kts 138°
2026-04-25 20:57 36.54942 -121.21691 30898 ft 441 kts 138°
2026-04-25 20:57 36.50693 -121.16121 30900 ft 442 kts 138°
2026-04-25 20:58 36.46483 -121.10609 30892 ft 442 kts 138°
2026-04-25 20:58 36.42254 -121.05062 30899 ft 442 kts 137°
2026-04-25 20:59 36.38162 -120.99304 30901 ft 445 kts 135°
2026-04-25 20:59 36.34156 -120.93464 30897 ft 447 kts 135°
2026-04-25 21:00 36.31483 -120.89568 30894 ft 447 kts 135°
2026-04-25 21:01 36.24039 -120.78830 30891 ft 447 kts 136°
2026-04-25 21:01 36.19989 -120.73034 30885 ft 446 kts 136°
2026-04-25 21:02 36.15911 -120.67220 30879 ft 448 kts 136°
2026-04-25 21:02 36.11847 -120.61435 30886 ft 448 kts 136°
2026-04-25 21:03 36.07759 -120.55624 30897 ft 447 kts 137°
2026-04-25 21:03 36.03677 -120.49837 30891 ft 448 kts 137°
2026-04-25 21:04 35.99599 -120.44065 30896 ft 449 kts 137°
2026-04-25 21:04 35.95501 -120.38273 30895 ft 448 kts 137°
2026-04-25 21:05 35.91368 -120.32442 30896 ft 448 kts 137°
2026-04-25 21:05 35.87167 -120.26839 30889 ft 444 kts 143°
2026-04-25 21:06 35.82303 -120.22286 30901 ft 434 kts 153°
2026-04-25 21:06 35.77155 -120.18420 30887 ft 434 kts 155°
2026-04-25 21:07 35.71958 -120.14655 30882 ft 433 kts 155°
2026-04-25 21:07 35.66758 -120.10850 30883 ft 433 kts 155°
2026-04-25 21:08 35.61595 -120.07010 30884 ft 432 kts 155°
2026-04-25 21:08 35.56464 -120.03158 30882 ft 435 kts 154°
2026-04-25 21:09 35.48731 -119.97341 30890 ft 434 kts 155°
2026-04-25 21:09 35.43595 -119.93478 30892 ft 434 kts 155°
2026-04-25 21:10 35.38432 -119.89606 30892 ft 435 kts 155°
2026-04-25 21:10 35.33270 -119.85738 30895 ft 436 kts 155°
2026-04-25 21:11 35.28114 -119.81830 30900 ft 437 kts 153°
2026-04-25 21:11 35.23198 -119.77450 30897 ft 441 kts 149°
2026-04-25 21:12 35.18364 -119.72826 30898 ft 440 kts 148°
2026-04-25 21:12 35.15165 -119.69756 30896 ft 431 kts 149°
2026-04-25 21:13 35.11374 -119.66132 30898 ft 411 kts 149°
2026-04-25 21:13 35.09095 -119.63982 30899 ft 413 kts 150°
2026-04-25 21:13 35.04518 -119.59710 30899 ft 411 kts 150°
2026-04-25 21:14 35.02281 -119.57618 30904 ft 398 kts 150°
2026-04-25 21:14 35.00112 -119.55589 30721 ft 389 kts 150°
2026-04-25 21:14 34.97990 -119.53612 30371 ft 383 kts 151°
2026-04-25 21:14 34.95867 -119.51643 29882 ft 380 kts 151°
2026-04-25 21:15 34.93784 -119.49717 29381 ft 378 kts 151°
2026-04-25 21:15 34.91692 -119.47785 28941 ft 374 kts 151°
2026-04-25 21:15 34.87484 -119.43986 28903 ft 385 kts 152°
2026-04-25 21:16 34.85294 -119.42052 28629 ft 393 kts 152°
2026-04-25 21:16 34.83095 -119.40105 28124 ft 393 kts 152°
2026-04-25 21:16 34.80903 -119.38151 27605 ft 391 kts 152°
2026-04-25 21:16 34.78721 -119.36198 27091 ft 388 kts 152°
2026-04-25 21:17 34.76569 -119.34273 26580 ft 385 kts 152°
2026-04-25 21:17 34.74423 -119.32356 26060 ft 382 kts 152°
2026-04-25 21:17 34.72253 -119.30436 25542 ft 379 kts 153°
2026-04-25 21:17 34.70129 -119.28574 25039 ft 376 kts 153°
2026-04-25 21:18 34.68016 -119.26731 24534 ft 373 kts 153°
2026-04-25 21:18 34.65912 -119.24899 24037 ft 370 kts 153°
2026-04-25 21:18 34.63837 -119.23093 23783 ft 360 kts 153°
2026-04-25 21:18 34.61807 -119.21333 23378 ft 356 kts 153°
2026-04-25 21:19 34.59822 -119.19629 22926 ft 354 kts 154°
2026-04-25 21:19 34.57811 -119.17905 22450 ft 352 kts 153°
2026-04-25 21:19 34.55809 -119.16186 21959 ft 351 kts 153°
2026-04-25 21:19 34.53831 -119.14459 21488 ft 350 kts 152°
2026-04-25 21:20 34.51868 -119.12722 21020 ft 348 kts 152°
2026-04-25 21:20 34.51221 -119.12148 20864 ft 348 kts 152°
2026-04-25 21:20 34.47987 -119.09275 20041 ft 345 kts 152°
2026-04-25 21:20 34.46057 -119.07563 19571 ft 343 kts 151°
2026-04-25 21:21 34.44152 -119.05877 19108 ft 341 kts 152°
2026-04-25 21:21 34.42231 -119.04192 18641 ft 339 kts 152°
2026-04-25 21:21 34.40315 -119.02529 18178 ft 336 kts 152°
2026-04-25 21:21 34.38426 -119.00897 17723 ft 334 kts 152°
2026-04-25 21:22 34.36531 -118.99262 17271 ft 332 kts 152°
2026-04-25 21:22 34.34672 -118.97656 16815 ft 330 kts 151°
2026-04-25 21:22 34.32833 -118.96041 16374 ft 329 kts 150°
2026-04-25 21:22 34.31001 -118.94386 15920 ft 327 kts 150°
2026-04-25 21:23 34.29186 -118.92725 15464 ft 326 kts 149°
2026-04-25 21:23 34.27388 -118.91078 15011 ft 324 kts 150°
2026-04-25 21:23 34.25588 -118.89436 14563 ft 323 kts 149°
2026-04-25 21:23 34.23789 -118.87790 14111 ft 321 kts 149°
2026-04-25 21:24 34.22024 -118.86166 13668 ft 320 kts 149°
2026-04-25 21:24 34.20253 -118.84533 13237 ft 317 kts 149°
2026-04-25 21:24 34.18505 -118.82925 12799 ft 316 kts 148°
2026-04-25 21:24 34.16784 -118.81341 12569 ft 307 kts 148°
2026-04-25 21:25 34.15144 -118.79727 12336 ft 303 kts 145°
2026-04-25 21:25 34.13577 -118.78028 11883 ft 304 kts 142°
2026-04-25 21:25 34.12022 -118.76283 11484 ft 302 kts 142°
2026-04-25 21:25 34.10490 -118.74573 11106 ft 300 kts 142°
2026-04-25 21:26 34.08942 -118.72868 10709 ft 299 kts 142°
2026-04-25 21:26 34.07401 -118.71192 10320 ft 298 kts 142°
2026-04-25 21:26 34.05863 -118.69525 9964 ft 295 kts 141°
2026-04-25 21:26 34.04379 -118.67889 9833 ft 285 kts 139°
2026-04-25 21:27 34.03126 -118.66048 9456 ft 289 kts 122°
2026-04-25 21:27 34.02494 -118.63758 9135 ft 291 kts 101°
2026-04-25 21:27 34.02285 -118.61306 8768 ft 290 kts 95°
2026-04-25 21:27 34.02166 -118.58939 8473 ft 281 kts 95°
2026-04-25 21:28 34.02022 -118.56600 8118 ft 280 kts 97°
2026-04-25 21:28 34.01837 -118.54288 7877 ft 276 kts 97°
2026-04-25 21:28 34.01626 -118.51953 7522 ft 275 kts 98°
2026-04-25 21:28 34.01415 -118.49696 7418 ft 267 kts 98°
2026-04-25 21:29 34.01204 -118.47462 7346 ft 266 kts 97°
2026-04-25 21:29 34.01113 -118.45228 7208 ft 271 kts 87°
2026-04-25 21:29 34.01379 -118.42950 6888 ft 271 kts 78°
2026-04-25 21:29 34.01801 -118.40756 6610 ft 268 kts 76°
2026-04-25 21:30 34.02234 -118.38600 6343 ft 264 kts 77°
2026-04-25 21:30 34.02636 -118.36444 6075 ft 261 kts 78°
2026-04-25 21:30 34.02948 -118.34318 5968 ft 251 kts 83°
2026-04-25 21:30 34.03092 -118.32905 5975 ft 247 kts 85°
2026-04-25 21:31 34.03338 -118.30157 5922 ft 246 kts 85°
2026-04-25 21:31 34.03546 -118.28037 5666 ft 244 kts 84°
2026-04-25 21:31 34.03773 -118.25977 5305 ft 247 kts 83°
2026-04-25 21:31 34.03883 -118.25013 5149 ft 247 kts 83°
2026-04-25 21:32 34.04127 -118.22896 4873 ft 245 kts 83°
2026-04-25 21:32 34.04358 -118.20853 4588 ft 244 kts 84°
2026-04-25 21:32 34.04584 -118.18838 4270 ft 245 kts 83°
2026-04-25 21:32 34.04810 -118.16824 4014 ft 242 kts 83°
2026-04-25 21:33 34.05033 -118.14824 3740 ft 240 kts 83°
2026-04-25 21:33 34.05260 -118.12830 3428 ft 234 kts 84°
2026-04-25 21:33 34.05324 -118.10912 3177 ft 228 kts 104°
2026-04-25 21:33 34.04583 -118.09295 2861 ft 221 kts 144°
2026-04-25 21:34 34.03225 -118.08562 2637 ft 213 kts 169°
2026-04-25 21:34 34.01759 -118.08215 2572 ft 210 kts 171°
2026-04-25 21:34 34.00310 -118.07937 2569 ft 213 kts 180°
2026-04-25 21:34 33.98906 -118.08403 2577 ft 212 kts 217°
2026-04-25 21:35 33.97874 -118.09679 2578 ft 214 kts 230°
2026-04-25 21:35 33.96995 -118.11095 2566 ft 211 kts 237°
2026-04-25 21:35 33.96391 -118.12721 2567 ft 215 kts 254°
2026-04-25 21:35 33.96130 -118.14504 2575 ft 212 kts 261°
2026-04-25 21:36 33.95972 -118.16200 2569 ft 196 kts 262°
2026-04-25 21:36 33.95818 -118.17825 2571 ft 192 kts 261°
2026-04-25 21:36 33.95655 -118.19410 2576 ft 193 kts 261°
2026-04-25 21:36 33.95492 -118.21024 2576 ft 191 kts 261°
2026-04-25 21:37 33.95340 -118.22553 2571 ft 179 kts 262°
2026-04-25 21:37 33.95289 -118.23060 2561 ft 180 kts 261°
2026-04-25 21:37 33.95037 -118.25538 2211 ft 170 kts 261°
2026-04-25 21:37 33.94900 -118.26905 1945 ft 156 kts 261°
2026-04-25 21:38 33.94774 -118.28142 1764 ft 146 kts 259°
2026-04-25 21:38 33.94645 -118.29368 1579 ft 148 kts 259°
2026-04-25 21:38 33.94522 -118.30598 1373 ft 147 kts 259°
2026-04-25 21:38 33.94398 -118.31814 1180 ft 148 kts 260°
2026-04-25 21:39 33.94269 -118.33062 984 ft 150 kts 259°
2026-04-25 21:39 33.94143 -118.34315 779 ft 149 kts 259°
2026-04-25 21:39 33.94017 -118.35545 584 ft 147 kts 259°
2026-04-25 21:39 33.93892 -118.36761 393 ft 145 kts 259°
2026-04-25 21:40 33.93771 -118.37959 196 ft 143 kts 259°
2026-04-25 21:40 33.93640 -118.39125 110 ft 121 kts 263°
2026-04-25 21:40 33.93579 -118.39810 117 ft 51 kts 264°
2026-04-25 21:40 33.93577 -118.40163 123 ft 29 kts 281°
2026-04-25 21:41 33.93622 -118.40376 126 ft 23 kts 283°
2026-04-25 21:41 33.93613 -118.40566 130 ft 21 kts 263°
2026-04-25 21:41 33.93595 -118.40727 132 ft 18 kts 264°
2026-04-25 21:41 33.93617 -118.40865 134 ft 16 kts 308°
2026-04-25 21:42 33.93718 -118.40904 134 ft 13 kts 353°
2026-04-25 21:42 33.93746 -118.40908 134 ft 0 kts 354°
2026-04-25 21:42 33.93780 -118.40913 135 ft 7 kts 354°
2026-04-25 21:42 33.93831 -118.40918 135 ft 7 kts
2026-04-25 21:43 33.93870 -118.40859 134 ft 11 kts 76°
2026-04-25 21:43 33.93885 -118.40743 133 ft 16 kts 83°
2026-04-25 21:43 33.93901 -118.40586 132 ft 18 kts 83°
2026-04-25 21:43 33.93917 -118.40421 129 ft 20 kts 83°
2026-04-25 21:44 33.93935 -118.40248 126 ft 20 kts 83°
2026-04-25 21:44 33.93949 -118.40118 125 ft 12 kts 83°
2026-04-25 21:44 33.94080 -118.40076 126 ft 9 kts 353°
2026-04-25 21:45 33.94139 -118.40085 126 ft 7 kts 353°
2026-04-25 21:45 33.94155 -118.40080 126 ft 6 kts 34°
2026-04-25 21:45 33.94160 -118.40037 125 ft 0 kts 96°
2026-04-25 21:45 33.94159 -118.40035 125 ft 0 kts 96°
2026-04-25 21:46 33.94159 -118.40022 125 ft 1 kts 96°